Vorticity
2 -2 8 6 3 -5 18 62 2 11 6 37 22 20 7 12 -4 -1 -2 1 -0 2 -1 -2 1 3 3 10 7 5 7 6 7 5 6 9 10 12 12 15 13 10 7 5
7 4 9 12 8 2 20 25 3 -1 7 3 20 8 22 15 -3 -2 2 4 -2 2 -1 2 -1 -1 8 8 5 6 8 8 7 6 7 9 12 12 13 12 9 6 6 9
13 15 18 -0 12 9 19 8 6 7 7 17 22 22 8 2 -1 3 0 -7 0 1 -2 2 3 -4 10 8 5 6 9 8 7 7 7 10 12 12 10 6 6 10 12 10
9 13 8 5 7 3 -3 -1 -1 4 2 -6 0 28 -6 5 3 1 1 3 1 0 0 -2 4 2 12 7 6 7 8 8 7 6 8 11 13 14 9 9 9 8 10 11
7 13 7 4 4 13 6 8 9 2 4 8 18 -11 54 10 2 1 1 2 -2 -1 3 -2 -0 10 11 5 5 8 9 7 6 6 9 12 14 11 7 10 12 13 11 12
2 9 10 5 5 5 11 16 17 11 12 28 29 21 33 30 5 2 -0 -3 -2 3 2 1 4 14 6 5 7 8 8 7 8 9 12 14 13 9 9 9 8 11 11 11
10 5 4 13 10 8 14 3 15 11 16 -2 -4 68 -41 28 15 10 6 1 -1 8 3 -0 11 11 6 5 7 10 8 8 8 10 13 15 10 9 10 9 10 10 9 9
0 16 3 21 7 6 3 3 -4 9 7 -4 -7 19 14 21 34 1 14 6 6 2 -5 10 12 7 2 8 9 9 7 8 9 10 12 14 8 10 10 9 10 11 10 9
6 -3 16 5 5 11 22 4 17 -0 18 15 11 11 5 5 8 15 16 11 8 9 9 1 8 5 6 9 9 9 8 9 9 11 13 12 8 10 10 10 10 10 10 8
12 13 9 3 6 14 -4 15 8 9 9 11 17 10 -20 13 19 9 10 13 10 -1 4 -1 11 5 9 9 10 9 8 8 11 12 12 11 10 10 10 10 10 9 9 8
-1 -8 13 6 12 16 14 11 11 4 1 9 6 16 6 3 12 12 4 8 3 -1 3 3 7 8 6 11 9 9 9 10 12 11 12 10 11 10 10 10 10 9 10 9
8 16 16 3 15 2 7 10 6 -6 16 2 4 7 7 20 2 6 10 7 5 -1 6 12 7 3 10 10 9 9 10 11 11 11 11 10 11 10 10 10 9 9 10 10
17 18 5 16 16 9 16 20 8 8 6 8 3 -9 -9 2 8 12 10 7 2 2 3 -0 6 4 12 9 10 10 10 10 9 12 10 10 10 10 10 9 9 10 10 12
16 16 -2 11 12 11 0 6 5 2 8 -0 -15 -3 2 7 18 19 10 5 5 5 9 10 2 7 11 8 10 10 11 10 10 12 11 11 11 10 9 9 9 10 10 12
2 13 6 3 2 3 1 5 3 -3 -5 -3 1 2 -7 8 21 11 9 6 8 8 9 7 -0 7 10 9 10 11 12 9 10 13 11 11 10 10 9 9 9 11 11 13
3 7 10 10 7 6 10 17 13 11 7 14 22 19 18 14 13 9 9 11 2 10 3 2 4 9 9 10 10 13 10 9 14 11 10 10 10 9 8 10 10 11 13 14
4 7 8 15 9 6 28 35 24 21 16 7 13 18 22 12 7 10 11 -6 12 5 5 3 7 10 10 11 13 10 9 11 13 11 11 10 9 9 8 11 12 11 14 13
9 7 5 10 10 16 14 4 -0 2 10 6 2 4 5 7 11 3 -3 10 8 9 8 5 8 10 14 13 14 10 10 14 12 11 10 10 9 8 10 11 11 14 14 9
7 9 6 5 8 -0 18 27 28 15 13 11 -7 12 14 15 7 2 -2 14 4 7 5 7 10 15 15 11 11 9 11 15 11 11 11 10 8 8 10 11 11 16 11 7
5 7 -5 9 8 -0 4 9 4 1 9 11 20 17 7 -1 -3 4 12 9 1 9 9 9 14 15 10 13 11 9 14 13 11 11 10 9 8 9 11 11 13 14 8 6
8 10 3 4 1 12 8 10 11 17 3 6 12 9 -1 2 13 11 9 11 6 10 8 10 13 11 10 12 9 11 16 12 11 11 10 8 8 9 11 10 14 13 7 7
12 10 21 22 7 17 22 11 12 3 -0 10 15 -7 -4 8 12 11 9 8 12 11 7 13 13 7 14 11 11 15 14 11 11 10 8 8 9 10 11 11 15 13 8 9
15 -10 -0 -3 -5 -11 -7 16 7 3 2 10 9 5 15 10 14 8 8 13 12 8 12 12 9 12 13 11 11 17 12 11 11 9 8 9 9 10 10 11 14 15 10 9
4 13 -5 19 5 8 11 4 -0 2 8 10 14 2 4 10 11 11 17 14 12 12 12 10 13 14 13 12 16 14 12 11 10 8 8 9 9 10 10 10 12 16 13 11
1 21 10 5 4 9 1 -1 9 5 7 11 6 3 7 11 16 16 11 12 13 10 8 12 14 14 12 11 17 13 12 11 8 8 8 9 9 9 10 11 11 13 13 12
10 -0 5 12 16 5 7 1 1 10 11 6 3 6 10 15 10 10 11 13 10 8 9 11 12 14 12 15 16 12 11 10 8 8 9 9 9 9 9 9 10 12 14 16
Height
3188 3189 3189 3190 3190 3190 3189 3187 3189 3192 3191 3192 3191 3192 3190 3189 3190 3187 3185 3182 3181 3181 3182 3181 3178 3173 3168 3161 3155 3150 3143 3137 3130 3123 3117 3110 3102 3092 3083 3076 3068 3060 3054 3047
3187 3187 3188 3190 3190 3188 3187 3187 3191 3192 3190 3191 3190 3192 3191 3188 3188 3186 3184 3181 3179 3178 3177 3178 3176 3171 3164 3157 3150 3145 3138 3131 3125 3118 3111 3103 3094 3086 3078 3073 3066 3058 3051 3044
3184 3186 3187 3188 3189 3188 3188 3188 3188 3190 3189 3188 3190 3191 3191 3189 3188 3185 3182 3179 3177 3176 3175 3176 3172 3167 3161 3153 3147 3141 3135 3128 3121 3114 3107 3099 3091 3084 3076 3068 3061 3053 3045 3038
3183 3183 3185 3186 3187 3188 3187 3187 3187 3187 3188 3188 3187 3188 3187 3184 3184 3182 3179 3176 3175 3174 3175 3174 3169 3164 3157 3150 3143 3137 3131 3124 3117 3109 3102 3093 3085 3078 3070 3063 3056 3050 3043 3036
3181 3181 3183 3184 3184 3185 3186 3185 3186 3185 3185 3185 3184 3184 3179 3180 3180 3177 3175 3173 3174 3173 3174 3171 3167 3161 3154 3146 3139 3133 3126 3120 3112 3104 3097 3089 3082 3074 3067 3061 3054 3048 3041 3033
3179 3180 3182 3182 3182 3183 3183 3183 3183 3183 3183 3182 3176 3176 3173 3172 3173 3173 3171 3171 3172 3172 3172 3169 3164 3158 3150 3143 3136 3130 3123 3116 3109 3102 3094 3087 3079 3070 3064 3057 3050 3044 3038 3030
3176 3178 3179 3179 3180 3181 3181 3182 3182 3185 3182 3177 3171 3171 3167 3168 3169 3170 3171 3172 3171 3171 3170 3167 3160 3153 3145 3140 3134 3128 3121 3114 3106 3099 3091 3083 3075 3067 3061 3053 3047 3041 3035 3028
3173 3176 3176 3176 3178 3179 3179 3180 3180 3180 3179 3173 3170 3167 3165 3166 3168 3169 3170 3169 3168 3167 3167 3162 3154 3147 3141 3137 3131 3124 3117 3111 3103 3095 3087 3080 3071 3064 3058 3051 3045 3039 3032 3025
3169 3171 3172 3174 3175 3177 3176 3176 3177 3176 3174 3172 3168 3167 3165 3163 3164 3165 3166 3166 3166 3166 3163 3156 3150 3145 3139 3134 3128 3122 3114 3107 3099 3091 3084 3077 3069 3062 3055 3049 3044 3038 3031 3024
3166 3169 3170 3172 3172 3173 3173 3174 3174 3174 3174 3171 3165 3164 3161 3161 3161 3163 3164 3165 3165 3163 3157 3153 3148 3143 3137 3131 3125 3117 3110 3102 3094 3087 3081 3074 3066 3060 3052 3046 3041 3036 3029 3022
3163 3165 3168 3169 3168 3169 3170 3170 3171 3172 3171 3168 3168 3161 3160 3161 3161 3163 3163 3164 3161 3158 3154 3151 3145 3139 3133 3127 3120 3113 3105 3098 3091 3085 3078 3070 3064 3059 3053 3046 3040 3033 3027 3020
3159 3161 3163 3166 3166 3167 3168 3168 3168 3168 3168 3166 3165 3159 3159 3159 3159 3159 3159 3158 3156 3153 3150 3146 3140 3134 3128 3122 3116 3109 3102 3095 3088 3081 3074 3068 3062 3057 3051 3045 3039 3032 3025 3018
3156 3158 3161 3164 3166 3165 3164 3164 3165 3165 3164 3162 3163 3157 3154 3155 3154 3153 3153 3152 3151 3149 3146 3141 3135 3129 3123 3117 3111 3105 3099 3091 3084 3078 3072 3067 3061 3055 3050 3044 3037 3031 3023 3017
3153 3154 3156 3158 3159 3160 3162 3161 3162 3161 3160 3158 3156 3155 3152 3152 3151 3150 3150 3150 3149 3146 3141 3136 3130 3125 3118 3112 3107 3101 3094 3087 3081 3076 3070 3065 3060 3054 3048 3042 3035 3028 3021 3015
3151 3152 3154 3156 3157 3157 3158 3158 3158 3157 3156 3154 3152 3151 3150 3149 3149 3148 3149 3147 3145 3142 3137 3131 3125 3119 3114 3109 3103 3097 3091 3085 3079 3073 3068 3064 3059 3054 3048 3041 3034 3026 3020 3014
3147 3149 3151 3153 3153 3153 3153 3153 3152 3152 3151 3149 3147 3145 3146 3146 3145 3145 3144 3142 3140 3136 3131 3127 3122 3116 3111 3105 3100 3096 3089 3083 3076 3071 3066 3062 3058 3053 3047 3041 3034 3026 3020 3014
3146 3147 3149 3149 3149 3149 3149 3147 3147 3148 3146 3145 3144 3144 3142 3142 3142 3143 3141 3139 3136 3132 3128 3124 3119 3113 3108 3103 3098 3092 3086 3079 3074 3069 3065 3060 3056 3051 3045 3040 3033 3027 3020 3014
3142 3144 3146 3146 3147 3148 3144 3144 3145 3145 3143 3142 3141 3140 3140 3140 3140 3140 3139 3136 3133 3129 3125 3120 3114 3110 3105 3100 3094 3088 3082 3077 3072 3067 3065 3061 3056 3051 3044 3039 3033 3026 3020 3015
3139 3141 3143 3144 3144 3141 3139 3141 3142 3142 3142 3140 3138 3137 3137 3137 3137 3137 3134 3131 3128 3125 3120 3117 3112 3108 3102 3097 3091 3086 3081 3076 3072 3069 3065 3061 3056 3051 3044 3038 3032 3026 3021 3015
3136 3137 3140 3139 3139 3137 3135 3137 3139 3140 3139 3136 3136 3135 3135 3136 3136 3136 3132 3128 3125 3120 3115 3112 3108 3103 3098 3093 3088 3083 3079 3074 3071 3068 3065 3060 3056 3050 3044 3037 3032 3026 3021 3015
3131 3133 3135 3135 3134 3133 3133 3135 3136 3139 3140 3134 3134 3135 3135 3134 3133 3130 3127 3124 3120 3116 3111 3108 3102 3097 3093 3089 3085 3080 3077 3073 3070 3067 3064 3060 3055 3050 3044 3038 3032 3027 3022 3017
3128 3129 3130 3131 3133 3131 3130 3132 3135 3134 3133 3134 3133 3133 3131 3129 3127 3124 3121 3118 3115 3110 3106 3102 3097 3092 3089 3085 3082 3078 3075 3072 3069 3067 3064 3060 3056 3050 3044 3039 3033 3028 3023 3019
3124 3125 3125 3127 3125 3125 3125 3127 3128 3128 3128 3129 3130 3129 3128 3125 3123 3120 3117 3114 3110 3104 3102 3098 3094 3090 3086 3083 3079 3076 3073 3072 3069 3066 3063 3061 3056 3050 3045 3040 3035 3029 3025 3020
3116 3119 3119 3119 3119 3121 3121 3121 3123 3124 3124 3123 3122 3122 3121 3120 3117 3115 3111 3108 3104 3100 3096 3094 3091 3088 3084 3081 3077 3075 3073 3071 3069 3066 3064 3060 3056 3051 3046 3041 3036 3031 3026 3021
3115 3115 3115 3115 3113 3116 3116 3117 3117 3117 3117 3116 3116 3114 3114 3112 3110 3108 3105 3101 3099 3096 3092 3091 3089 3085 3082 3079 3076 3074 3073 3072 3069 3067 3064 3061 3057 3053 3048 3043 3037 3032 3026 3021
3110 3109 3111 3112 3112 3112 3112 3113 3113 3112 3112 3112 3112 3110 3108 3105 3104 3102 3098 3096 3094 3092 3089 3087 3084 3081 3078 3076 3075 3073 3073 3072 3070 3067 3065 3061 3058 3054 3049 3043 3038 3033 3027 3022